Tracking 20621 objects as of 1-Apr-2020
HD Live streaming from Space Station
objects crossing your sky now

COSMOS 1249 COOLANT

Track COSMOS 1249 COOLANT now!
10-day predictions


NORAD ID: 27569
Int'l Code: 1981-021R
Perigee: 883.3 km
Apogee: 979.0 km
Inclination: 65.0 °
Period: 103.5 minutes
Semi major axis: 7302 km
RCS: 0.0062 m2 (small)
Launch date: March 5, 1981
Source: Commonwealth of Independent States (former USSR) (CIS)
Launch site: TYURATAM MISSILE AND SPACE COMPLEX (TTMTR)

Note: This is SATELLITE DEBRIS
aabbcc
Your satellite tracking list
Your tracking list is empty




NASA's NSSDC Master Catalog

Two Line Element Set (TLE):
1 27569U 81021R   20089.73381162 -.00000026  00000-0  50729-4 0  9997
2 27569  64.9594 130.7655 0065508 273.4923  85.8649 13.91317979901469
Source of the keplerian elements: AFSPC